Craig, CO

7:47 AM MDT on September 30, 2016 (GMT -0600)
Craig-Moffat

Weather History for KCAG - July, 2013

Change the Weather History Date:

Tuesday, July 16, 2013

  Actual Average Record
Temperature  
Mean Temperature 74 °F 67 °F  
Max Temperature 94 °F 88 °F 97 °F (2005)
Min Temperature 53 °F 46 °F 39 °F (2008)
Degree Days  
Heating Degree Days 0 1  
Month to date heating degree days 0 20  
Since 1 June heating degree days 88 195  
Since 1 July heating degree days 0 20  
Cooling Degree Days 9 3  
Month to date cooling degree days 111 31  
Year to date cooling degree days 155 41  
Since 1 June cooling degree days 155 41  
Growing Degree Days 23 (Base 50)    
Moisture  
Dew Point 47 °F    
Average Humidity 49    
Maximum Humidity 77    
Minimum Humidity 20    
Precipitation  
Precipitation 0.00 in 0.02 in 0.07 in (2004)
Month to date precipitation 0.05 0.56  
Year to date precipitation 5.30 8.07  
Sea Level Pressure  
Sea Level Pressure 29.90 in    
Wind  
Wind Speed 4 mph (NE)    
Max Wind Speed 13 mph    
Max Gust Speed 17 mph    
Visibility 10 miles    
Events Thunderstorm    
T = Trace of Precipitation, MM = Missing Value Source: NWS Daily Summary

Daily Weather History Graph

Daily Weather History Graph

Search for Another Location

Airport or City:

Trip Planner

Search our weather history database for the weather conditions in past years. The results will help you decide how hot, cold, wet, or windy it might be!

Date:

Astronomy

Jul. 16, 2013 Rise Set
Actual Time 5:53 AM MDT 8:38 PM MDT
Civil Twilight 5:21 AM MDT 9:10 PM MDT
Nautical Twilight 4:41 AM MDT 9:50 PM MDT
Astronomical Twilight 3:55 AM MDT 10:36 PM MDT
Moon 2:22 PM MDT (7/16) 12:25 AM MDT (7/16)
Length of Visible Light 15h 49m
Length of Day
14h 45m
First Quarter, 57% of the Moon is Illuminated
Jul 16
First Quarter
Jul 22
Full
Jul 29
Last Quarter
Aug 6
New
Aug 14
First Quarter

Hourly Weather History & Observations

Time (MDT) Temp. Dew Point Humidity Pressure Visibility Wind Dir Wind Speed Gust Speed Precip Events Conditions
12:53 AM 69.1 °F 48.9 °F 49% 29.86 in 10.0 mi Calm Calm - N/A   Clear
1:53 AM 63.0 °F 48.0 °F 58% 29.88 in 10.0 mi Calm Calm - N/A   Mostly Cloudy
2:53 AM 61.0 °F 48.9 °F 64% 29.90 in 10.0 mi Calm Calm - N/A   Clear
3:53 AM 57.0 °F 46.9 °F 69% 29.91 in 10.0 mi Calm Calm - N/A   Clear
4:53 AM 55.9 °F 46.9 °F 72% 29.92 in 10.0 mi ESE 4.6 mph - N/A   Clear
5:53 AM 54.0 °F 46.9 °F 77% 29.94 in 10.0 mi Calm Calm - N/A   Clear
6:53 AM 59.0 °F 48.9 °F 69% 29.95 in 10.0 mi ESE 4.6 mph - N/A   Clear
7:53 AM 66.9 °F 50.0 °F 54% 29.94 in 10.0 mi ENE 3.5 mph - N/A   Clear
8:53 AM 73.0 °F 50.0 °F 44% 29.95 in 10.0 mi ENE 6.9 mph - N/A   Clear
9:53 AM 78.1 °F 48.9 °F 36% 29.94 in 10.0 mi Calm Calm - N/A   Clear
10:53 AM 80.1 °F 51.1 °F 36% 29.93 in 10.0 mi NW 5.8 mph - N/A   Clear
11:53 AM 84.9 °F 46.9 °F 27% 29.90 in 10.0 mi Variable 3.5 mph - N/A   Clear
12:53 PM 84.9 °F 46.9 °F 27% 29.88 in 10.0 mi Variable 3.5 mph - N/A   Clear
1:53 PM 89.1 °F 46.0 °F 22% 29.87 in 10.0 mi Variable 5.8 mph - N/A   Clear
2:53 PM 91.0 °F 44.1 °F 20% 29.84 in 10.0 mi Variable 4.6 mph - N/A   Clear
3:53 PM 91.9 °F 44.1 °F 19% 29.83 in 10.0 mi East 3.5 mph - N/A   Clear
4:23 PM 91.4 °F 44.6 °F 20% 30.08 in 10.0 mi SE 5.8 mph - N/A Thunderstorm Partly Cloudy
4:53 PM 91.0 °F 44.1 °F 20% 29.82 in 10.0 mi North 8.1 mph - N/A Thunderstorm Thunderstorm
5:33 PM 87.8 °F 44.6 °F 22% 30.08 in 10.0 mi North 11.5 mph - N/A   Clear
5:53 PM 88.0 °F 45.0 °F 22% 29.83 in 10.0 mi North 5.8 mph - N/A Thunderstorm Clear
6:20 PM 87.8 °F 42.8 °F 21% 30.07 in 10.0 mi Calm Calm - N/A   Clear
6:53 PM 84.9 °F 41.0 °F 21% 29.83 in 10.0 mi West 9.2 mph - N/A   Clear
7:53 PM 80.1 °F 45.0 °F 29% 29.83 in 10.0 mi SW 9.2 mph - N/A   Clear
8:53 PM 75.0 °F 46.9 °F 37% 29.85 in 10.0 mi Calm Calm - N/A   Clear
9:53 PM 71.1 °F 48.9 °F 45% 29.88 in 10.0 mi NE 3.5 mph - N/A   Mostly Cloudy
10:53 PM 69.1 °F 48.9 °F 49% 29.91 in 10.0 mi Calm Calm - N/A   Clear
11:53 PM 64.0 °F 46.9 °F 54% 29.92 in 10.0 mi Variable 3.5 mph - N/A   Clear